Regional Weather Roundup
Issued by NWS

Home | Current Version | Previous Version | Text Only | Print | Product List | Glossary On
Versions: 1 2 3 4 5 6 7 8 9 10 11 12 13 14 15 16 17 18 19 20 21 22 23 24 25 26 27 28 29 30 31 32 33 34 35 36 37 38 39 40 41 42 43 44 45 46 47 48 49 50
000
ASCA42 TJSJ 271710
RWRPR
PUERTO RICO/U.S. VIRGIN ISLANDS HOURLY WEATHER ROUNDUP
NATIONAL WEATHER SERVICE SAN JUAN PR
100 PM AST FRI FEB 27 2015

PRZ001-004-271800-
PUERTO RICO

CITY           SKY/WX    TMP DP  RH WIND       PRES   REMARKS
SAN JUAN LMM   MOSUNNY   84  70  61 E16G26    30.07F
MAYAGUEZ       MOSUNNY   84  73  70 SW5       30.07  HX  91
AGUADILLA      SUNNY     82  70  65 E17       30.07F
CEIBA          MOSUNNY   84  72  65 E12G20    30.10F
$$

PRZ006-007-271800-
U.S. VIRGIN ISLANDS

CITY           SKY/WX    TMP DP  RH WIND       PRES   REMARKS
$$

HOURLY WEATHER ROUNDUP FOR THE NEWS MEDIA

CITY           SKY/WX    TMP DP  RH WIND       PRES   REMARKS
ORLANDO        CLOUDY    56  45  66 N16       30.25R
NEW YORK       MOSUNNY   26   7  44 NW9       30.41S WCI  17
NEWARK         MOSUNNY   26   8  46 N8        30.40F WCI  18
CHICAGO        SUNNY     12  -5  46 W14       30.60R WCI  -3
HARTFORD       SUNNY     25   5  42 MISG      30.33S
BOSTON         MOSUNNY   22  -5  30 W12       30.35S WCI  10
DALLAS         SNOW      26  22  84 NE8       30.52S VSB 1/2 WCI  18
PHILADELPHIA   PTSUNNY   27  10  49 N7        30.44R WCI  19
LOS ANGELES    PTSUNNY   58  52  80 SE6       29.86R
WASHINGTON DC  MOSUNNY   27   9  46 NW12      30.44R WCI  17



USA.gov is the U.S. government's official web portal to all federal, state and local government web resources and services.